RYR81YQ EIDW-LPPR

Flight info

Callsign RYR81YQ
Flight time 1h 57m
Altitude 32000
Route PELIG2J PELIG DCT TUVEN/M074F320 DCT LASNO T9 BEGAS/N0430F330 DCT ELTEP/N0364F230 T328 ASPOR
Aircraft B738/M-SDE2E3FGHIRWXY/LB1

Departure

Time 2026-05-05 14:12
Airport Dublin Airport (EIDW)

Arrival

Time 2026-05-05 16:09
Airport Francisco de Sá Carneiro Airport (LPPR)
Time Latitude Longitude Altitude Speed Heading
2026-05-05 13:39 53.43011 -6.25009 210 ft 0 kts
2026-05-05 14:00 53.42985 -6.25012 210 ft 4 kts
2026-05-05 14:00 53.42965 -6.25014 210 ft 4 kts 335°
2026-05-05 14:00 53.42952 -6.24986 210 ft 4 kts 276°
2026-05-05 14:00 53.42953 -6.25008 219 ft 4 kts 275°
2026-05-05 14:01 53.42955 -6.25053 212 ft 4 kts 275°
2026-05-05 14:01 53.42958 -6.25098 212 ft 4 kts 275°
2026-05-05 14:01 53.42958 -6.25108 210 ft 0 kts 275°
2026-05-05 14:06 53.42960 -6.25138 210 ft 1 kts 274°
2026-05-05 14:06 53.42962 -6.25186 210 ft 9 kts 274°
2026-05-05 14:06 53.42951 -6.25278 210 ft 8 kts 246°
2026-05-05 14:06 53.42944 -6.25339 213 ft 4 kts 292°
2026-05-05 14:07 53.42959 -6.25361 218 ft 8 kts 329°
2026-05-05 14:07 53.43014 -6.25403 217 ft 9 kts 336°
2026-05-05 14:07 53.43093 -6.25460 219 ft 10 kts 336°
2026-05-05 14:07 53.43178 -6.25520 216 ft 16 kts 337°
2026-05-05 14:08 53.43258 -6.25580 218 ft 14 kts 336°
2026-05-05 14:08 53.43352 -6.25645 213 ft 13 kts 346°
2026-05-05 14:08 53.43408 -6.25584 210 ft 12 kts 85°
2026-05-05 14:08 53.43401 -6.25453 218 ft 8 kts 95°
2026-05-05 14:09 53.43391 -6.25265 214 ft 20 kts 96°
2026-05-05 14:09 53.43379 -6.25050 210 ft 17 kts 95°
2026-05-05 14:09 53.43367 -6.24825 214 ft 26 kts 95°
2026-05-05 14:09 53.43359 -6.24613 210 ft 12 kts 81°
2026-05-05 14:10 53.43415 -6.24558 211 ft 8 kts
2026-05-05 14:10 53.43489 -6.24545 219 ft 10 kts
2026-05-05 14:10 53.43521 -6.24565 220 ft 7 kts 298°
2026-05-05 14:10 53.43526 -6.24608 214 ft 0 kts 276°
2026-05-05 14:11 53.43530 -6.24683 215 ft 27 kts 275°
2026-05-05 14:11 53.43568 -6.25379 211 ft 93 kts 275°
2026-05-05 14:11 53.43646 -6.26784 215 ft 148 kts 276°
2026-05-05 14:11 53.43776 -6.28674 484 ft 174 kts 280°
2026-05-05 14:12 53.43979 -6.30803 971 ft 192 kts 289°
2026-05-05 14:12 53.44731 -6.32602 1667 ft 192 kts 329°
2026-05-05 14:12 53.45908 -6.33732 2309 ft 199 kts 327°
2026-05-05 14:12 53.46833 -6.35507 2944 ft 206 kts 306°
2026-05-05 14:13 53.47645 -6.37604 3318 ft 224 kts 306°
2026-05-05 14:13 53.48559 -6.39835 3726 ft 245 kts 307°
2026-05-05 14:13 53.49561 -6.42239 4449 ft 253 kts 307°
2026-05-05 14:13 53.50569 -6.44682 5318 ft 256 kts 302°
2026-05-05 14:14 53.51067 -6.47552 6175 ft 261 kts 271°
2026-05-05 14:14 53.50666 -6.50518 7054 ft 266 kts 246°
2026-05-05 14:14 53.49511 -6.52994 7789 ft 276 kts 221°
2026-05-05 14:14 53.47819 -6.54617 8538 ft 284 kts 207°
2026-05-05 14:15 53.46009 -6.55969 9306 ft 288 kts 205°
2026-05-05 14:15 53.44143 -6.57304 10029 ft 294 kts 205°
2026-05-05 14:15 53.42254 -6.58647 10493 ft 308 kts 205°
2026-05-05 14:15 53.40211 -6.60106 10681 ft 332 kts 205°
2026-05-05 14:16 53.38043 -6.61661 11121 ft 344 kts 205°
2026-05-05 14:16 53.35823 -6.63255 11836 ft 348 kts 205°
2026-05-05 14:16 53.33591 -6.64860 12595 ft 350 kts 205°
2026-05-05 14:16 53.31349 -6.66478 13326 ft 354 kts 205°
2026-05-05 14:17 53.29077 -6.68118 14045 ft 356 kts 205°
2026-05-05 14:17 53.26792 -6.69768 14702 ft 359 kts 205°
2026-05-05 14:17 53.24494 -6.71428 15364 ft 362 kts 205°
2026-05-05 14:17 53.22169 -6.73107 16025 ft 365 kts 205°
2026-05-05 14:18 53.19828 -6.74796 16682 ft 368 kts 205°
2026-05-05 14:18 53.17476 -6.76491 17325 ft 371 kts 205°
2026-05-05 14:18 53.15087 -6.78211 17974 ft 374 kts 205°
2026-05-05 14:18 53.12691 -6.79933 18574 ft 377 kts 205°
2026-05-05 14:19 53.10275 -6.81668 19133 ft 380 kts 205°
2026-05-05 14:19 53.07840 -6.83415 19709 ft 382 kts 205°
2026-05-05 14:19 53.05391 -6.85169 20262 ft 384 kts 205°
2026-05-05 14:19 53.02922 -6.86935 20792 ft 387 kts 205°
2026-05-05 14:20 53.00435 -6.88712 21318 ft 391 kts 205°
2026-05-05 14:20 52.97932 -6.90498 21856 ft 393 kts 206°
2026-05-05 14:20 52.95409 -6.92297 22389 ft 396 kts 206°
2026-05-05 14:20 52.92875 -6.94101 22904 ft 398 kts 206°
2026-05-05 14:21 52.90318 -6.95919 23406 ft 401 kts 206°
2026-05-05 14:21 52.87749 -6.97742 23848 ft 404 kts 206°
2026-05-05 14:21 52.85160 -6.99578 24271 ft 406 kts 206°
2026-05-05 14:21 52.82556 -7.01422 24685 ft 408 kts 206°
2026-05-05 14:22 52.79946 -7.03267 25083 ft 410 kts 206°
2026-05-05 14:22 52.77305 -7.05132 25434 ft 414 kts 205°
2026-05-05 14:22 52.74651 -7.07005 25768 ft 417 kts 205°
2026-05-05 14:22 52.71970 -7.08893 26132 ft 420 kts 205°
2026-05-05 14:23 52.69277 -7.10787 26544 ft 422 kts 205°
2026-05-05 14:23 52.66573 -7.12686 26933 ft 423 kts 205°
2026-05-05 14:23 52.63854 -7.14593 27289 ft 426 kts 205°
2026-05-05 14:23 52.61121 -7.16508 27645 ft 428 kts 205°
2026-05-05 14:24 52.58373 -7.18431 28006 ft 430 kts 205°
2026-05-05 14:24 52.55611 -7.20360 28349 ft 432 kts 205°
2026-05-05 14:24 52.52837 -7.22296 28689 ft 434 kts 205°
2026-05-05 14:24 52.50055 -7.24234 29025 ft 436 kts 205°
2026-05-05 14:25 52.47256 -7.26181 29359 ft 438 kts 205°
2026-05-05 14:25 52.44480 -7.28110 29695 ft 439 kts 205°
2026-05-05 14:25 52.41666 -7.30062 30132 ft 438 kts 205°
2026-05-05 14:25 52.38833 -7.32024 30586 ft 435 kts 205°
2026-05-05 14:26 52.36047 -7.33951 30947 ft 434 kts 205°
2026-05-05 14:26 52.33298 -7.35850 31246 ft 435 kts 205°
2026-05-05 14:26 52.30507 -7.37776 31552 ft 435 kts 205°
2026-05-05 14:26 52.27720 -7.39697 31901 ft 434 kts 204°
2026-05-05 14:27 52.24941 -7.41610 32254 ft 433 kts 204°
2026-05-05 14:27 52.22170 -7.43513 32514 ft 434 kts 204°
2026-05-05 14:27 52.19369 -7.45436 32690 ft 437 kts 205°
2026-05-05 14:27 52.16572 -7.47353 33010 ft 436 kts 205°
2026-05-05 14:28 52.13778 -7.49266 33374 ft 435 kts 204°
2026-05-05 14:28 52.10994 -7.51168 33705 ft 434 kts 205°
2026-05-05 14:28 52.08212 -7.53067 33982 ft 434 kts 205°
2026-05-05 14:28 52.05421 -7.54970 34069 ft 437 kts 204°
2026-05-05 14:29 52.00739 -7.58156 34072 ft 439 kts 204°
2026-05-05 14:29 51.95150 -7.61949 34062 ft 432 kts 204°
2026-05-05 14:30 51.89612 -7.65696 34085 ft 431 kts 204°
2026-05-05 14:30 51.84075 -7.69435 34083 ft 432 kts 204°
2026-05-05 14:31 51.78528 -7.73170 34070 ft 432 kts 204°
2026-05-05 14:31 51.72972 -7.76901 34079 ft 433 kts 204°
2026-05-05 14:32 51.67404 -7.80629 34079 ft 434 kts 204°
2026-05-05 14:32 51.61840 -7.84344 34085 ft 435 kts 204°
2026-05-05 14:33 51.56241 -7.88074 34087 ft 435 kts 204°
2026-05-05 14:33 51.50639 -7.91797 34083 ft 436 kts 204°
2026-05-05 14:34 51.45024 -7.95517 34089 ft 437 kts 204°
2026-05-05 14:34 51.39403 -7.99232 34087 ft 438 kts 204°
2026-05-05 14:35 51.33771 -8.02944 34089 ft 438 kts 204°
2026-05-05 14:35 51.28135 -8.06648 34083 ft 438 kts 204°
2026-05-05 14:36 51.22483 -8.10353 34092 ft 438 kts 204°
2026-05-05 14:36 51.16841 -8.14042 34094 ft 438 kts 204°
2026-05-05 14:37 51.11197 -8.17724 34096 ft 439 kts 204°
2026-05-05 14:37 51.05547 -8.21400 34096 ft 439 kts 204°
2026-05-05 14:38 50.99906 -8.24995 34084 ft 440 kts 200°
2026-05-05 14:38 50.93948 -8.27208 34092 ft 441 kts 192°
2026-05-05 14:39 50.87884 -8.29067 34097 ft 441 kts 192°
2026-05-05 14:39 50.81898 -8.30940 34092 ft 442 kts 192°
2026-05-05 14:40 50.75862 -8.32880 34094 ft 442 kts 193°
2026-05-05 14:40 50.69837 -8.34835 34092 ft 442 kts 193°
2026-05-05 14:41 50.63808 -8.36790 34093 ft 443 kts 193°
2026-05-05 14:41 50.57777 -8.38740 34092 ft 443 kts 193°
2026-05-05 14:42 50.51734 -8.40684 34093 ft 443 kts 193°
2026-05-05 14:42 50.45706 -8.42620 34097 ft 443 kts 193°
2026-05-05 14:43 50.39660 -8.44558 34101 ft 443 kts 193°
2026-05-05 14:43 50.33621 -8.46490 34092 ft 443 kts 192°
2026-05-05 14:44 50.27575 -8.48418 34092 ft 444 kts 192°
2026-05-05 14:44 50.21522 -8.50341 34102 ft 444 kts 192°
2026-05-05 14:45 50.15462 -8.52264 34102 ft 445 kts 192°
2026-05-05 14:45 50.09421 -8.54176 34091 ft 446 kts 192°
2026-05-05 14:46 50.03300 -8.56108 34092 ft 446 kts 192°
2026-05-05 14:46 49.97248 -8.58012 34092 ft 447 kts 192°
2026-05-05 14:47 49.91109 -8.59939 34096 ft 448 kts 192°
2026-05-05 14:47 49.85029 -8.61843 34091 ft 449 kts 192°
2026-05-05 14:48 49.78907 -8.63754 34090 ft 449 kts 192°
2026-05-05 14:48 49.72778 -8.65661 34088 ft 450 kts 192°
2026-05-05 14:49 49.66646 -8.67567 34098 ft 450 kts 192°
2026-05-05 14:49 49.60493 -8.69475 34090 ft 450 kts 192°
2026-05-05 14:50 49.54350 -8.71373 34091 ft 451 kts 192°
2026-05-05 14:50 49.48196 -8.73269 34090 ft 451 kts 192°
2026-05-05 14:51 49.42044 -8.75161 34094 ft 451 kts 192°
2026-05-05 14:51 49.35870 -8.77056 34088 ft 452 kts 192°
2026-05-05 14:52 49.29705 -8.78940 34095 ft 452 kts 192°
2026-05-05 14:52 49.23525 -8.80826 34091 ft 453 kts 192°
2026-05-05 14:53 49.17336 -8.82712 34093 ft 454 kts 191°
2026-05-05 14:53 49.11142 -8.84592 34094 ft 455 kts 191°
2026-05-05 14:54 49.04931 -8.86473 34091 ft 455 kts 192°
2026-05-05 14:54 48.98718 -8.88349 34087 ft 456 kts 192°
2026-05-05 14:55 48.92501 -8.90222 34081 ft 456 kts 192°
2026-05-05 14:55 48.86264 -8.92097 34092 ft 457 kts 192°
2026-05-05 14:56 48.80035 -8.93965 34090 ft 457 kts 192°
2026-05-05 14:56 48.73786 -8.95833 34090 ft 457 kts 192°
2026-05-05 14:57 48.67537 -8.97698 34084 ft 458 kts 192°
2026-05-05 14:57 48.61282 -8.99557 34092 ft 458 kts 191°
2026-05-05 14:58 48.54931 -9.00240 34100 ft 459 kts 180°
2026-05-05 14:58 48.48542 -9.00135 34090 ft 459 kts 179°
2026-05-05 14:59 48.42135 -9.00033 34089 ft 460 kts 179°
2026-05-05 14:59 48.35747 -8.99997 34088 ft 460 kts 180°
2026-05-05 15:00 48.30424 -8.99993 34089 ft 460 kts 180°
2026-05-05 15:00 48.22972 -8.99996 34090 ft 461 kts 179°
2026-05-05 15:01 48.16552 -8.99999 34091 ft 462 kts 179°
2026-05-05 15:01 48.10120 -9.00000 34088 ft 463 kts 179°
2026-05-05 15:02 48.03671 -9.00000 34078 ft 464 kts 179°
2026-05-05 15:02 47.97196 -9.00000 34089 ft 465 kts 179°
2026-05-05 15:03 47.90716 -9.00000 34084 ft 466 kts 179°
2026-05-05 15:03 47.84226 -9.00000 34086 ft 467 kts 179°
2026-05-05 15:04 47.77714 -9.00000 34085 ft 468 kts 179°
2026-05-05 15:04 47.71184 -8.99999 34084 ft 469 kts 179°
2026-05-05 15:05 47.61382 -8.99999 34076 ft 471 kts 179°
2026-05-05 15:06 47.54821 -8.99999 34082 ft 471 kts 179°
2026-05-05 15:06 47.48266 -9.00000 34076 ft 471 kts 179°
2026-05-05 15:07 47.41706 -8.99999 34085 ft 472 kts 180°
2026-05-05 15:07 47.35145 -9.00000 34081 ft 472 kts 180°
2026-05-05 15:08 47.28575 -9.00000 34078 ft 471 kts 180°
2026-05-05 15:08 47.22023 -9.00000 34085 ft 471 kts 180°
2026-05-05 15:09 47.15483 -9.00000 34075 ft 470 kts 180°
2026-05-05 15:09 47.08942 -9.00000 34075 ft 469 kts 180°
2026-05-05 15:10 47.02469 -9.00000 34076 ft 468 kts 180°
2026-05-05 15:10 46.95948 -9.00000 34072 ft 468 kts 180°
2026-05-05 15:11 46.89453 -9.00000 34074 ft 467 kts 180°
2026-05-05 15:11 46.82945 -9.00000 34054 ft 467 kts 180°
2026-05-05 15:12 46.76434 -9.00000 34075 ft 468 kts 180°
2026-05-05 15:12 46.69913 -9.00000 34080 ft 470 kts 180°
2026-05-05 15:13 46.63370 -9.00000 34085 ft 471 kts 180°
2026-05-05 15:13 46.56789 -9.00000 34082 ft 473 kts 180°
2026-05-05 15:14 46.50197 -9.00000 34076 ft 475 kts 180°
2026-05-05 15:14 46.43587 -9.00000 34070 ft 476 kts 180°
2026-05-05 15:15 46.38078 -9.00000 34068 ft 476 kts 180°
2026-05-05 15:15 46.31462 -9.00000 34076 ft 476 kts 180°
2026-05-05 15:16 46.24845 -9.00000 34072 ft 475 kts 180°
2026-05-05 15:16 46.18240 -9.00000 34071 ft 475 kts 180°
2026-05-05 15:17 46.11634 -9.00000 34072 ft 474 kts 180°
2026-05-05 15:17 46.05054 -9.00000 34069 ft 473 kts 180°
2026-05-05 15:18 45.98486 -9.00000 34073 ft 472 kts 181°
2026-05-05 15:18 45.91929 -9.00000 34067 ft 471 kts 181°
2026-05-05 15:19 45.85370 -9.00000 34069 ft 471 kts 181°
2026-05-05 15:19 45.78826 -9.00000 34078 ft 470 kts 181°
2026-05-05 15:20 45.72283 -9.00000 34071 ft 470 kts 181°
2026-05-05 15:20 45.65731 -9.00000 34071 ft 470 kts 181°
2026-05-05 15:21 45.59189 -9.00000 34058 ft 471 kts 181°
2026-05-05 15:21 45.52639 -9.00000 34063 ft 470 kts 181°
2026-05-05 15:22 45.46129 -9.00001 34058 ft 472 kts 181°
2026-05-05 15:22 45.39509 -8.99999 34074 ft 474 kts 182°
2026-05-05 15:23 45.32939 -9.00000 34066 ft 476 kts 182°
2026-05-05 15:23 45.26258 -9.00000 34071 ft 477 kts 182°
2026-05-05 15:24 45.19661 -9.00000 34077 ft 479 kts 182°
2026-05-05 15:24 45.12998 -9.00000 34065 ft 479 kts 182°
2026-05-05 15:25 45.06330 -9.00000 34065 ft 479 kts 182°
2026-05-05 15:25 44.99673 -8.99499 34059 ft 480 kts 170°
2026-05-05 15:26 44.93317 -8.96661 34074 ft 480 kts 159°
2026-05-05 15:26 44.87097 -8.93246 34061 ft 480 kts 159°
2026-05-05 15:27 44.80865 -8.89868 34064 ft 479 kts 159°
2026-05-05 15:27 44.74633 -8.86555 34062 ft 479 kts 160°
2026-05-05 15:28 44.68404 -8.83275 34059 ft 478 kts 160°
2026-05-05 15:28 44.62174 -8.80005 34054 ft 478 kts 160°
2026-05-05 15:29 44.55937 -8.76736 34062 ft 478 kts 160°
2026-05-05 15:29 44.49698 -8.73472 34061 ft 479 kts 160°
2026-05-05 15:30 44.43455 -8.70213 34082 ft 479 kts 160°
2026-05-05 15:30 44.37202 -8.66958 34059 ft 479 kts 160°
2026-05-05 15:31 44.30970 -8.63723 34052 ft 478 kts 160°
2026-05-05 15:31 44.24743 -8.60490 34048 ft 476 kts 160°
2026-05-05 15:32 44.18523 -8.57271 34077 ft 480 kts 161°
2026-05-05 15:32 44.12208 -8.54013 34239 ft 489 kts 161°
2026-05-05 15:32 44.09011 -8.52365 34429 ft 489 kts 161°
2026-05-05 15:33 44.05822 -8.50723 34693 ft 489 kts 161°
2026-05-05 15:33 44.02642 -8.49088 35005 ft 486 kts 161°
2026-05-05 15:33 43.99486 -8.47467 35346 ft 483 kts 161°
2026-05-05 15:33 43.96339 -8.45853 35685 ft 480 kts 161°
2026-05-05 15:34 43.93222 -8.44255 35989 ft 477 kts 161°
2026-05-05 15:34 43.86944 -8.41045 36056 ft 482 kts 161°
2026-05-05 15:35 43.80668 -8.37843 36049 ft 479 kts 161°
2026-05-05 15:35 43.74439 -8.34671 36058 ft 476 kts 161°
2026-05-05 15:36 43.68242 -8.31522 36053 ft 473 kts 161°
2026-05-05 15:36 43.62103 -8.28410 36057 ft 472 kts 161°
2026-05-05 15:37 43.55956 -8.25301 36068 ft 471 kts 161°
2026-05-05 15:37 43.49809 -8.22199 36062 ft 471 kts 162°
2026-05-05 15:38 43.43642 -8.19093 36079 ft 472 kts 162°
2026-05-05 15:38 43.37458 -8.15986 36079 ft 475 kts 162°
2026-05-05 15:39 43.31236 -8.12867 36058 ft 477 kts 162°
2026-05-05 15:39 43.24982 -8.09738 36073 ft 480 kts 162°
2026-05-05 15:40 43.18695 -8.06599 36073 ft 482 kts 162°
2026-05-05 15:40 43.12378 -8.03451 36048 ft 484 kts 162°
2026-05-05 15:41 43.06029 -8.00295 36057 ft 485 kts 162°
2026-05-05 15:41 42.99699 -7.97155 36063 ft 485 kts 162°
2026-05-05 15:42 42.93417 -7.94045 35995 ft 480 kts 163°
2026-05-05 15:42 42.90274 -7.92491 35497 ft 478 kts 163°
2026-05-05 15:42 42.87158 -7.90953 35015 ft 476 kts 163°
2026-05-05 15:42 42.84031 -7.89412 34485 ft 477 kts 163°
2026-05-05 15:43 42.80898 -7.87870 33857 ft 480 kts 163°
2026-05-05 15:43 42.77748 -7.86322 33219 ft 482 kts 163°
2026-05-05 15:43 42.74598 -7.84773 32580 ft 483 kts 163°
2026-05-05 15:43 42.71432 -7.83217 32001 ft 483 kts 164°
2026-05-05 15:44 42.68269 -7.81666 31409 ft 483 kts 164°
2026-05-05 15:44 42.65082 -7.80227 30801 ft 481 kts 171°
2026-05-05 15:44 42.61801 -7.79563 30200 ft 474 kts 183°
2026-05-05 15:44 42.58546 -7.79687 29649 ft 463 kts 193°
2026-05-05 15:45 42.55445 -7.80521 29120 ft 450 kts 203°
2026-05-05 15:45 42.52449 -7.81681 28691 ft 445 kts 203°
2026-05-05 15:45 42.49477 -7.82845 28209 ft 441 kts 203°
2026-05-05 15:45 42.46549 -7.83983 27763 ft 437 kts 203°
2026-05-05 15:46 42.43626 -7.85103 27312 ft 434 kts 202°
2026-05-05 15:46 42.40734 -7.86198 26858 ft 431 kts 202°
2026-05-05 15:46 42.37855 -7.87279 26425 ft 428 kts 202°
2026-05-05 15:46 42.34992 -7.88348 25992 ft 425 kts 202°
2026-05-05 15:47 42.32148 -7.89406 25520 ft 423 kts 202°
2026-05-05 15:47 42.30234 -7.90117 25238 ft 421 kts 202°
2026-05-05 15:47 42.26508 -7.91501 24668 ft 418 kts 202°
2026-05-05 15:47 42.23712 -7.92539 24218 ft 416 kts 202°
2026-05-05 15:48 42.20924 -7.93574 23771 ft 415 kts 202°
2026-05-05 15:48 42.18151 -7.94603 23287 ft 414 kts 202°
2026-05-05 15:48 42.15376 -7.95631 22811 ft 411 kts 202°
2026-05-05 15:48 42.12622 -7.96648 22340 ft 408 kts 202°
2026-05-05 15:49 42.09902 -7.97652 21944 ft 404 kts 202°
2026-05-05 15:49 42.07205 -7.98647 21507 ft 401 kts 201°
2026-05-05 15:49 42.04515 -7.99639 21094 ft 398 kts 201°
2026-05-05 15:49 42.01855 -8.00620 20683 ft 395 kts 201°
2026-05-05 15:50 41.99209 -8.01595 20269 ft 393 kts 201°
2026-05-05 15:50 41.96620 -8.02548 19874 ft 390 kts 200°
2026-05-05 15:50 41.93986 -8.03517 19457 ft 387 kts 200°
2026-05-05 15:50 41.91391 -8.04472 19035 ft 385 kts 200°
2026-05-05 15:51 41.88809 -8.05420 18645 ft 383 kts 200°
2026-05-05 15:51 41.86252 -8.06358 18243 ft 381 kts 199°
2026-05-05 15:51 41.83705 -8.07291 17799 ft 379 kts 199°
2026-05-05 15:51 41.81183 -8.08279 17357 ft 374 kts 206°
2026-05-05 15:52 41.78897 -8.09851 16983 ft 365 kts 215°
2026-05-05 15:52 41.76733 -8.11594 16571 ft 363 kts 215°
2026-05-05 15:52 41.74590 -8.13276 16187 ft 361 kts 214°
2026-05-05 15:52 41.72390 -8.14951 15782 ft 358 kts 213°
2026-05-05 15:53 41.70210 -8.16568 15406 ft 357 kts 211°
2026-05-05 15:53 41.67912 -8.17852 15023 ft 358 kts 203°
2026-05-05 15:53 41.65557 -8.18899 14641 ft 357 kts 201°
2026-05-05 15:53 41.63219 -8.19884 14281 ft 355 kts 201°
2026-05-05 15:54 41.60850 -8.20894 13905 ft 353 kts 201°
2026-05-05 15:54 41.58549 -8.21902 13494 ft 351 kts 201°
2026-05-05 15:54 41.56237 -8.22934 13097 ft 349 kts 202°
2026-05-05 15:54 41.53946 -8.23970 12707 ft 347 kts 202°
2026-05-05 15:55 41.51666 -8.25008 12334 ft 345 kts 202°
2026-05-05 15:55 41.49405 -8.26039 11949 ft 342 kts 201°
2026-05-05 15:55 41.47163 -8.27061 11598 ft 339 kts 202°
2026-05-05 15:55 41.44938 -8.28073 11232 ft 337 kts 202°
2026-05-05 15:56 41.42728 -8.29080 11080 ft 337 kts 202°
2026-05-05 15:56 41.40496 -8.30096 10688 ft 344 kts 202°
2026-05-05 15:56 41.38246 -8.31117 10476 ft 337 kts 202°
2026-05-05 15:56 41.36048 -8.32109 10290 ft 329 kts 202°
2026-05-05 15:57 41.33908 -8.33076 10146 ft 321 kts 202°
2026-05-05 15:57 41.31825 -8.34018 10020 ft 311 kts 202°
2026-05-05 15:57 41.29820 -8.34924 9768 ft 303 kts 202°
2026-05-05 15:57 41.27826 -8.35828 9399 ft 299 kts 202°
2026-05-05 15:58 41.25877 -8.36709 9168 ft 292 kts 202°
2026-05-05 15:58 41.23963 -8.37576 8887 ft 290 kts 202°
2026-05-05 15:58 41.22061 -8.38438 8614 ft 288 kts 202°
2026-05-05 15:58 41.20169 -8.39294 8334 ft 287 kts 202°
2026-05-05 15:59 41.18289 -8.40143 8024 ft 286 kts 202°
2026-05-05 15:59 41.16403 -8.40995 7728 ft 285 kts 202°
2026-05-05 15:59 41.14524 -8.41843 7431 ft 284 kts 202°
2026-05-05 15:59 41.12659 -8.42683 7157 ft 283 kts 202°
2026-05-05 16:00 41.10799 -8.43521 6887 ft 282 kts 201°
2026-05-05 16:00 41.08941 -8.44358 6623 ft 282 kts 201°
2026-05-05 16:00 41.07086 -8.45192 6348 ft 281 kts 201°
2026-05-05 16:00 41.05234 -8.46024 6074 ft 280 kts 201°
2026-05-05 16:01 41.03391 -8.46851 5779 ft 279 kts 201°
2026-05-05 16:01 41.02179 -8.47422 5615 ft 277 kts 207°
2026-05-05 16:01 41.00690 -8.48930 5343 ft 267 kts 237°
2026-05-05 16:01 40.99886 -8.51062 5240 ft 254 kts 257°
2026-05-05 16:02 40.99496 -8.53291 5118 ft 244 kts 262°
2026-05-05 16:02 40.99190 -8.55457 5040 ft 235 kts 264°
2026-05-05 16:02 40.98919 -8.57556 4945 ft 226 kts 270°
2026-05-05 16:02 40.99195 -8.59505 4831 ft 211 kts 299°
2026-05-05 16:03 41.00058 -8.60980 4752 ft 197 kts 320°
2026-05-05 16:03 41.01199 -8.61883 4596 ft 189 kts 339°
2026-05-05 16:03 41.02477 -8.62264 4370 ft 188 kts 346°
2026-05-05 16:03 41.03755 -8.62604 4126 ft 187 kts 346°
2026-05-05 16:04 41.05025 -8.62946 3885 ft 186 kts 346°
2026-05-05 16:04 41.06289 -8.63284 3634 ft 184 kts 346°
2026-05-05 16:04 41.07534 -8.63610 3411 ft 182 kts 345°
2026-05-05 16:04 41.08767 -8.63930 3150 ft 179 kts 346°
2026-05-05 16:05 41.09979 -8.64246 2917 ft 176 kts 346°
2026-05-05 16:05 41.11159 -8.64553 2684 ft 169 kts 345°
2026-05-05 16:05 41.12272 -8.64842 2474 ft 158 kts 345°
2026-05-05 16:05 41.13325 -8.65114 2270 ft 151 kts 343°
2026-05-05 16:06 41.14342 -8.65382 2080 ft 145 kts 344°
2026-05-05 16:06 41.15323 -8.65639 1881 ft 143 kts 343°
2026-05-05 16:06 41.16305 -8.65897 1703 ft 145 kts 344°
2026-05-05 16:06 41.17315 -8.66163 1495 ft 149 kts 345°
2026-05-05 16:07 41.18337 -8.66431 1295 ft 150 kts 346°
2026-05-05 16:07 41.19327 -8.66685 1074 ft 140 kts 344°
2026-05-05 16:07 41.20284 -8.66926 941 ft 141 kts 345°
2026-05-05 16:07 41.21244 -8.67197 753 ft 144 kts 345°
2026-05-05 16:08 41.22231 -8.67458 547 ft 146 kts 347°
2026-05-05 16:08 41.23238 -8.67715 316 ft 148 kts 345°
2026-05-05 16:08 41.24223 -8.67974 215 ft 128 kts 348°
2026-05-05 16:08 41.24867 -8.68142 207 ft 57 kts 348°
2026-05-05 16:09 41.25147 -8.68157 183 ft 33 kts 13°
2026-05-05 16:09 41.25291 -8.68070 179 ft 13 kts 70°
2026-05-05 16:09 41.25277 -8.68027 180 ft 0 kts 143°
2026-05-05 16:09 41.25240 -8.68008 182 ft 10 kts 167°
2026-05-05 16:10 41.25205 -8.67998 190 ft 13 kts 168°
2026-05-05 16:10 41.25114 -8.67975 189 ft 8 kts 169°
2026-05-05 16:10 41.25037 -8.67955 196 ft 17 kts 168°
2026-05-05 16:10 41.24914 -8.67922 199 ft 16 kts 169°
2026-05-05 16:11 41.24795 -8.67849 206 ft 26 kts 152°
2026-05-05 16:11 41.24292 -8.67686 231 ft 16 kts 136°
2026-05-05 16:12 41.24224 -8.67587 236 ft 13 kts 150°
2026-05-05 16:12 41.24031 -8.67530 237 ft 17 kts 169°
2026-05-05 16:13 41.23670 -8.67436 237 ft 22 kts 169°
2026-05-05 16:13 41.23526 -8.67398 238 ft 20 kts 169°
2026-05-05 16:13 41.23421 -8.67370 239 ft 11 kts 168°
2026-05-05 16:14 41.23365 -8.67273 242 ft 7 kts 53°
2026-05-05 16:14 41.23414 -8.67197 244 ft 1 kts 48°
2026-05-05 16:15 41.23418 -8.67192 244 ft 0 kts 47°